GIA122 WIII-WIPP

Flight info

Callsign GIA122
Flight time 0h 45m
Altitude 30000
Route DOLTA W12 GUSKO
Aircraft B738/M-SDE2E3FGHIRWXY/LB1

Departure

Time 2026-05-04 09:51
Airport Soekarno-Hatta International Airport (WIII)

Arrival

Time 2026-05-04 10:36
Airport Sultan Mahmud Badaruddin II Airport (WIPP)
Time Latitude Longitude Altitude Speed Heading
2026-05-04 09:21 -6.11645 106.66759 37 ft 0 kts 158°
2026-05-04 09:42 -6.11588 106.66732 36 ft 2 kts 149°
2026-05-04 09:43 -6.11574 106.66722 37 ft 2 kts 142°
2026-05-04 09:43 -6.11562 106.66711 35 ft 2 kts 126°
2026-05-04 09:43 -6.11555 106.66696 33 ft 2 kts 91°
2026-05-04 09:43 -6.11557 106.66684 36 ft 1 kts 69°
2026-05-04 09:44 -6.11557 106.66682 36 ft 0 kts 68°
2026-05-04 09:46 -6.11502 106.66813 37 ft 11 kts 67°
2026-05-04 09:46 -6.11474 106.66888 37 ft 12 kts 70°
2026-05-04 09:46 -6.11412 106.66935 37 ft 12 kts 359°
2026-05-04 09:47 -6.11331 106.66915 35 ft 12 kts 337°
2026-05-04 09:47 -6.11255 106.66883 37 ft 12 kts 337°
2026-05-04 09:49 -6.11026 106.66971 38 ft 4 kts 12°
2026-05-04 09:49 -6.10973 106.66961 38 ft 11 kts 324°
2026-05-04 09:49 -6.10918 106.66875 37 ft 18 kts 279°
2026-05-04 09:51 -6.12925 106.61246 1799 ft 214 kts 266°
2026-05-04 09:51 -6.12653 106.59771 2343 ft 225 kts 295°
2026-05-04 09:51 -6.11927 106.58282 2566 ft 250 kts 296°
2026-05-04 09:51 -6.11173 106.56649 2995 ft 267 kts 294°
2026-05-04 09:52 -6.10448 106.54916 3709 ft 272 kts 292°
2026-05-04 09:52 -6.09748 106.53134 4464 ft 276 kts 291°
2026-05-04 09:52 -6.09056 106.51322 5203 ft 280 kts 290°
2026-05-04 09:52 -6.08347 106.49485 5912 ft 285 kts 295°
2026-05-04 09:53 -6.07130 106.47934 6620 ft 285 kts 321°
2026-05-04 09:53 -6.05500 106.46792 7306 ft 288 kts 328°
2026-05-04 09:53 -6.03790 106.45725 7991 ft 291 kts 329°
2026-05-04 09:53 -6.02053 106.44665 8687 ft 293 kts 329°
2026-05-04 09:54 -6.00301 106.43593 9394 ft 296 kts 329°
2026-05-04 09:54 -5.98536 106.42506 10051 ft 299 kts 329°
2026-05-04 09:54 -5.96776 106.41416 10677 ft 302 kts 329°
2026-05-04 09:54 -5.94974 106.40296 11301 ft 305 kts 329°
2026-05-04 09:55 -5.93156 106.39162 11924 ft 308 kts 329°
2026-05-04 09:55 -5.91326 106.38018 12547 ft 311 kts 329°
2026-05-04 09:55 -5.89475 106.36860 13158 ft 315 kts 329°
2026-05-04 09:55 -5.87609 106.35693 13758 ft 318 kts 329°
2026-05-04 09:56 -5.85724 106.34513 14281 ft 321 kts 329°
2026-05-04 09:56 -5.83817 106.33319 14822 ft 324 kts 329°
2026-05-04 09:56 -5.81896 106.32116 15368 ft 327 kts 329°
2026-05-04 09:56 -5.79954 106.30900 15893 ft 330 kts 329°
2026-05-04 09:57 -5.78000 106.29676 16432 ft 333 kts 329°
2026-05-04 09:57 -5.76021 106.28438 16959 ft 336 kts 329°
2026-05-04 09:57 -5.74028 106.27191 17477 ft 339 kts 329°
2026-05-04 09:57 -5.71990 106.25969 17987 ft 342 kts 332°
2026-05-04 09:58 -5.69911 106.24794 18448 ft 345 kts 332°
2026-05-04 09:58 -5.67801 106.23621 18894 ft 348 kts 333°
2026-05-04 09:58 -5.65682 106.22441 19358 ft 350 kts 332°
2026-05-04 10:00 -5.50454 106.13869 22456 ft 367 kts 332°
2026-05-04 10:00 -5.48249 106.12624 22878 ft 370 kts 332°
2026-05-04 10:02 -5.32222 106.03578 25443 ft 383 kts 333°
2026-05-04 10:04 -5.15919 105.94374 28152 ft 383 kts 333°
2026-05-04 10:04 -5.13602 105.93067 28541 ft 382 kts 333°
2026-05-04 10:04 -5.11287 105.91758 28925 ft 381 kts 332°
2026-05-04 10:04 -5.08991 105.90452 29249 ft 380 kts 332°
2026-05-04 10:05 -5.06690 105.89140 29502 ft 381 kts 332°
2026-05-04 10:05 -5.04388 105.87826 29773 ft 380 kts 332°
2026-05-04 10:05 -5.02077 105.86508 29871 ft 385 kts 332°
2026-05-04 10:06 -4.97421 105.83852 29856 ft 383 kts 332°
2026-05-04 10:06 -4.92832 105.81235 29860 ft 378 kts 332°
2026-05-04 10:08 -4.76685 105.72036 29858 ft 384 kts 332°
2026-05-04 10:08 -4.72039 105.69389 29850 ft 384 kts 332°
2026-05-04 10:09 -4.67404 105.66749 29848 ft 382 kts 332°
2026-05-04 10:09 -4.62777 105.64115 29866 ft 386 kts 332°
2026-05-04 10:10 -4.58017 105.61407 29871 ft 400 kts 332°
2026-05-04 10:10 -4.53153 105.58638 29849 ft 403 kts 332°
2026-05-04 10:11 -4.48283 105.55865 29845 ft 402 kts 332°
2026-05-04 10:11 -4.43434 105.53105 29840 ft 397 kts 332°
2026-05-04 10:12 -4.41310 105.51896 29651 ft 391 kts 332°
2026-05-04 10:12 -4.38926 105.50539 29200 ft 390 kts 332°
2026-05-04 10:12 -4.36558 105.49192 28657 ft 392 kts 332°
2026-05-04 10:12 -4.34174 105.47836 28074 ft 396 kts 332°
2026-05-04 10:13 -4.31771 105.46470 27544 ft 398 kts 332°
2026-05-04 10:13 -4.29371 105.45105 27143 ft 396 kts 332°
2026-05-04 10:13 -4.26988 105.43749 26816 ft 392 kts 332°
2026-05-04 10:13 -4.24631 105.42408 26480 ft 389 kts 332°
2026-05-04 10:14 -4.22282 105.41072 26105 ft 387 kts 332°
2026-05-04 10:14 -4.19946 105.39743 25748 ft 385 kts 332°
2026-05-04 10:16 -4.03975 105.30664 23091 ft 370 kts 332°
2026-05-04 10:16 -4.01742 105.29395 22540 ft 368 kts 332°
2026-05-04 10:16 -3.99528 105.28136 22029 ft 364 kts 332°
2026-05-04 10:16 -3.97337 105.26891 21495 ft 361 kts 332°
2026-05-04 10:17 -3.95161 105.25654 20976 ft 358 kts 332°
2026-05-04 10:17 -3.93002 105.24427 20466 ft 356 kts 332°
2026-05-04 10:19 -3.78287 105.16167 17061 ft 337 kts 332°
2026-05-04 10:19 -3.76240 105.15019 16566 ft 334 kts 332°
2026-05-04 10:19 -3.74898 105.14266 16230 ft 332 kts 332°
2026-05-04 10:19 -3.72889 105.13140 15766 ft 330 kts 332°
2026-05-04 10:20 -3.70895 105.12022 15295 ft 328 kts 332°
2026-05-04 10:20 -3.68914 105.10911 14828 ft 325 kts 332°
2026-05-04 10:20 -3.66946 105.09807 14375 ft 323 kts 332°
2026-05-04 10:20 -3.64991 105.08711 13924 ft 321 kts 331°
2026-05-04 10:21 -3.63056 105.07626 13471 ft 319 kts 331°
2026-05-04 10:21 -3.61124 105.06543 12983 ft 316 kts 331°
2026-05-04 10:21 -3.59214 105.05471 12501 ft 314 kts 331°
2026-05-04 10:21 -3.57313 105.04406 12035 ft 312 kts 331°
2026-05-04 10:22 -3.53569 105.02307 11225 ft 304 kts 331°
2026-05-04 10:22 -3.51726 105.01329 10902 ft 296 kts 338°
2026-05-04 10:22 -3.49801 105.00662 10607 ft 289 kts 344°
2026-05-04 10:23 -3.47883 105.00131 10366 ft 284 kts 345°
2026-05-04 10:23 -3.45970 104.99624 10206 ft 284 kts 345°
2026-05-04 10:25 -3.33209 104.96084 10029 ft 257 kts 344°
2026-05-04 10:25 -3.31457 104.95586 10037 ft 266 kts 344°
2026-05-04 10:25 -3.29676 104.95079 10033 ft 263 kts 344°
2026-05-04 10:25 -3.27961 104.94590 10011 ft 247 kts 344°
2026-05-04 10:26 -3.26383 104.94140 10000 ft 226 kts 344°
2026-05-04 10:26 -3.24941 104.93729 9981 ft 215 kts 344°
2026-05-04 10:26 -3.23512 104.93322 9769 ft 212 kts 344°
2026-05-04 10:26 -3.22100 104.92919 9339 ft 211 kts 344°
2026-05-04 10:27 -3.20686 104.92516 8892 ft 211 kts 344°
2026-05-04 10:27 -3.19279 104.92115 8485 ft 210 kts 344°
2026-05-04 10:27 -3.17881 104.91716 8073 ft 209 kts 344°
2026-05-04 10:27 -3.16489 104.91319 7682 ft 207 kts 343°
2026-05-04 10:28 -3.15111 104.90926 7295 ft 205 kts 343°
2026-05-04 10:28 -3.13740 104.90535 6869 ft 205 kts 343°
2026-05-04 10:28 -3.12371 104.90145 6484 ft 204 kts 343°
2026-05-04 10:28 -3.11013 104.89757 6100 ft 202 kts 343°
2026-05-04 10:29 -3.09662 104.89372 5690 ft 202 kts 343°
2026-05-04 10:29 -3.08308 104.89020 5265 ft 201 kts 354°
2026-05-04 10:29 -3.06958 104.89286 4858 ft 198 kts 24°
2026-05-04 10:29 -3.05700 104.89837 4459 ft 198 kts 24°
2026-05-04 10:30 -3.04460 104.90365 4248 ft 189 kts 24°
2026-05-04 10:30 -3.03408 104.90812 4132 ft 195 kts 24°
2026-05-04 10:30 -3.02442 104.91221 4079 ft 198 kts 23°
2026-05-04 10:30 -3.01163 104.91748 3974 ft 199 kts 18°
2026-05-04 10:31 -2.99819 104.91729 3829 ft 195 kts 334°
2026-05-04 10:31 -2.98902 104.90800 3799 ft 188 kts 298°
2026-05-04 10:32 -2.95816 104.84340 2754 ft 167 kts 292°
2026-05-04 10:33 -2.95368 104.83267 2541 ft 166 kts 292°
2026-05-04 10:33 -2.94924 104.82204 2328 ft 165 kts 292°
2026-05-04 10:33 -2.94481 104.81145 2117 ft 165 kts 292°
2026-05-04 10:33 -2.94040 104.80089 1905 ft 165 kts 292°
2026-05-04 10:34 -2.93599 104.79034 1687 ft 164 kts 292°
2026-05-04 10:34 -2.93161 104.77987 1476 ft 163 kts 292°
2026-05-04 10:34 -2.92724 104.76941 1272 ft 163 kts 292°
2026-05-04 10:34 -2.92289 104.75899 1064 ft 162 kts 292°
2026-05-04 10:35 -2.91856 104.74862 864 ft 163 kts 293°
2026-05-04 10:35 -2.91414 104.73803 650 ft 165 kts 293°
2026-05-04 10:35 -2.90990 104.72740 445 ft 164 kts 292°
2026-05-04 10:35 -2.90550 104.71681 213 ft 167 kts 293°
2026-05-04 10:36 -2.90109 104.70630 56 ft 160 kts 294°
2026-05-04 10:36 -2.89769 104.69846 48 ft 69 kts 294°
2026-05-04 10:36 -2.89615 104.69487 50 ft 54 kts 293°
2026-05-04 10:36 -2.89503 104.69251 53 ft 29 kts 316°
2026-05-04 10:37 -2.89408 104.69253 49 ft 1 kts 22°
2026-05-04 10:39 -2.89476 104.69569 51 ft 21 kts 113°
2026-05-04 10:39 -2.89535 104.69706 51 ft 20 kts 113°
2026-05-04 10:39 -2.89591 104.69839 50 ft 21 kts 112°
2026-05-04 10:40 -2.89638 104.69958 51 ft 15 kts 113°
2026-05-04 10:40 -2.89679 104.70053 51 ft 14 kts 113°
2026-05-04 10:40 -2.89718 104.70143 51 ft 14 kts 113°
2026-05-04 10:40 -2.89694 104.70227 51 ft 14 kts 47°
2026-05-04 10:41 -2.89626 104.70291 51 ft 9 kts 30°
2026-05-04 10:41 -2.89585 104.70309 50 ft 5 kts 21°
2026-05-04 10:41 -2.89563 104.70317 50 ft 0 kts 21°